Вернуться в каталог

STARLINK-36224

АктивенСвязьVLEO
NORAD 67203·PAYLOAD·🇺🇸 United States

Запущен Dec 17, 2025 с Vandenberg Space Force Base

Loading…

Ближайшие Пролёты (ближайшие 24 часа)

TLE

СвежийSource: CelesTrak SupGP

Эпоха: Sep 15, 2026, 03:47 UTC

1 67203C 25304M   26258.15812500 -.00023293  00000+0 -19528-2 0  2582
2 67203  70.0015  56.7614 0002584 268.8430 122.4379 14.98329414    16

Отслеживайте STARLINK-36224 в реальном времени с AllMySat

Download on the App Store